Location: Yellowknife
(62.4500°N, 114.3500°W)
Time: 21:21:12
(UTC-07:00)

Envisat - Visible Passes

Search period start: 21 January 2018 00:00
Search period end: 31 January 2018 00:00
Orbit: 764 x 766 km, 98.2° (Epoch: 21 January)

Date Brightness Start Highest point End Pass type
(mag) Time Alt. Az. Time Alt. Az. Time Alt. Az.
21 Jan 5.4 08:04:27 10° NNE 08:08:36 24° E 08:12:44 10° SE visible
21 Jan 3.9 17:52:05 10° ESE 17:56:19 27° NE 18:00:33 10° N visible
21 Jan 2.9 19:31:32 22° SSE 19:34:51 85° ENE 19:39:59 10° NNW visible
21 Jan 5.0 21:11:43 16° SW 21:14:31 26° W 21:18:45 10° NNW visible
22 Jan 5.9 07:28:25 10° NE 07:31:19 15° E 07:34:12 10° ESE visible
22 Jan 4.3 17:16:27 10° E 17:20:01 20° NE 17:23:36 10° N visible
22 Jan 3.1 18:54:07 15° SE 18:58:11 54° ENE 19:03:10 10° NNW visible
22 Jan 4.1 20:34:18 20° SSW 20:37:25 42° W 20:42:16 10° NNW visible
22 Jan 5.9 22:16:39 10° W 22:17:53 11° WNW 22:19:07 10° WNW visible
23 Jan 4.9 08:29:50 10° NNE 08:34:30 34° E 08:39:07 10° SSE visible
23 Jan 3.6 18:17:05 10° ESE 18:21:41 35° NE 18:26:17 10° N visible
23 Jan 3.2 19:56:53 19° S 20:00:30 69° WSW 20:05:36 10° NNW visible
23 Jan 5.4 21:37:04 10° SW 21:40:29 18° W 21:43:59 10° NW visible
24 Jan 5.7 07:53:27 10° NE 07:57:19 21° E 08:01:10 10° SE visible
24 Jan 4.0 17:41:15 10° E 17:45:18 25° NE 17:49:22 10° N visible
24 Jan 2.9 19:19:27 15° SSE 19:23:43 75° ENE 19:28:50 10° NNW visible
24 Jan 4.7 20:59:38 14° SW 21:03:16 30° W 21:07:44 10° NNW visible
25 Jan 6.0 07:17:42 10° NE 07:19:59 13° ENE 07:22:14 10° ESE visible
25 Jan 4.4 17:05:42 10° ENE 17:09:02 18° NE 17:12:23 10° N visible
25 Jan 3.2 18:42:15 10° SE 18:47:06 47° ENE 18:51:59 10° NNW visible
25 Jan 3.8 20:22:12 15° S 20:26:12 48° W 20:31:10 10° NNW visible
25 Jan 5.8 22:04:19 10° WSW 22:06:33 13° WNW 22:08:46 10° NW visible
26 Jan 5.1 08:18:46 10° NNE 08:23:15 30° E 08:27:42 10° SSE visible
26 Jan 3.7 18:06:11 10° ESE 18:10:38 32° NE 18:15:06 10° N visible
26 Jan 3.0 19:44:46 13° SSE 19:49:20 79° WSW 19:54:28 10° NNW visible
26 Jan 5.3 21:25:21 10° SW 21:29:11 21° W 21:33:02 10° NW visible
27 Jan 5.7 07:42:30 10° NE 07:46:02 18° E 07:49:33 10° SE visible
27 Jan 4.2 17:30:26 10° E 17:34:17 22° NE 17:38:10 10° N visible
27 Jan 2.9 19:07:35 10° SE 19:12:37 65° ENE 19:17:40 10° NNW visible
27 Jan 4.5 20:47:29 10° SSW 20:52:01 34° W 20:56:40 10° NNW visible
28 Jan 6.2 07:07:18 10° ENE 07:08:37 11° ENE 07:09:57 10° E visible
28 Jan 3.4 18:31:17 10° SE 18:36:02 42° ENE 18:40:49 10° NNW visible
28 Jan 3.6 20:10:01 10° S 20:15:01 56° WSW 20:20:03 10° NNW visible
28 Jan 5.7 21:52:21 10° WSW 21:55:12 15° W 21:58:04 10° NW visible
29 Jan 5.4 08:07:43 10° NNE 08:11:59 26° E 08:16:13 10° SE visible
29 Jan 3.9 17:55:18 10° ESE 17:59:36 28° NE 18:03:55 10° N visible
29 Jan 2.9 19:33:05 10° SSE 19:38:11 90° ENE 19:43:19 10° NNW visible
29 Jan 5.1 21:13:47 10° SW 21:17:54 24° W 21:22:02 10° NNW visible
30 Jan 5.8 07:31:37 10° NE 07:34:43 16° E 07:37:48 10° ESE visible
30 Jan 3.0 18:56:32 10° SE 19:01:30 57° ENE 19:06:30 10° NNW visible
30 Jan 4.2 20:36:01 10° SSW 20:40:47 39° W 20:45:35 10° NNW visible
30 Jan 6.1 22:21:02 10° WNW 22:21:19 10° WNW 22:21:36 10° WNW visible
